Lapse_Rate
0.1 -0.0 -0.1 0.4 -0.1 0.2 0.8 1.2 1.5 -0.1 0.3 -0.3 -0.2 -0.5 -0.9 0.5 2.2 3.4 4.5 5.4 5.0 6.2 7.3 5.9 3.3 3.2 3.4 3.2 3.6 3.7 3.5 3.0 2.7 3.1 3.6 3.8 4.5 4.8
0.7 0.0 -0.2 -0.7 0.1 -0.8 0.9 1.3 0.6 0.9 3.9 -0.8 -0.8 -0.9 -0.2 0.8 1.8 2.9 4.1 4.6 4.8 4.8 4.6 2.8 3.1 3.2 3.6 3.5 3.6 3.5 3.4 3.2 3.0 3.1 3.7 4.0 4.7 4.9
0.2 0.5 0.4 0.0 0.4 -0.2 -0.2 -0.1 0.3 1.3 2.3 0.1 -0.2 0.5 -0.3 0.9 1.3 2.3 3.7 3.4 4.2 4.3 4.1 3.8 3.9 3.3 3.0 3.4 3.1 3.3 3.3 3.5 3.7 3.9 4.0 4.0 4.7 5.3
2.4 2.3 2.2 1.6 0.7 -0.1 -0.1 -0.4 0.4 1.9 3.2 1.9 0.5 -0.0 0.4 2.4 1.1 0.7 1.7 2.7 3.2 3.7 4.0 3.9 4.0 3.6 3.5 3.4 3.4 3.5 3.6 3.9 3.9 3.8 4.0 3.9 4.3 5.2
2.5 2.4 2.2 2.1 2.1 1.5 0.8 0.6 0.2 1.6 3.2 3.5 2.5 1.9 1.8 1.2 2.2 1.1 1.2 1.3 2.5 3.3 4.5 4.5 4.5 4.3 4.1 3.9 3.9 3.9 3.7 4.0 3.7 3.7 3.8 3.7 3.7 4.1
2.8 2.7 2.6 2.4 2.2 2.1 2.7 2.4 1.8 1.8 2.1 4.0 4.5 2.7 2.0 1.4 2.7 2.8 1.7 1.5 1.4 2.9 4.1 4.7 4.9 4.9 4.6 4.6 4.7 4.5 4.1 3.7 3.9 3.9 3.9 4.0 4.1 4.0
3.4 3.7 4.3 4.7 5.3 4.1 2.8 2.1 2.7 2.6 2.2 3.1 3.6 3.4 2.5 1.8 2.8 3.7 3.8 3.1 1.9 2.1 1.8 2.9 3.7 4.0 4.7 5.2 4.6 4.4 4.4 4.3 4.2 4.3 4.1 4.4 4.5 4.6
4.4 4.7 5.8 6.6 5.3 7.9 7.5 5.1 3.7 3.3 3.6 3.4 4.2 5.1 2.9 1.2 2.9 3.2 4.0 3.3 3.1 2.1 1.7 2.5 2.9 1.8 3.2 4.0 3.8 4.1 4.3 4.6 4.7 4.8 4.7 4.5 4.9 5.1
4.6 4.7 5.1 5.4 5.3 5.6 6.6 6.6 7.7 6.9 5.1 3.8 3.6 3.4 3.2 3.3 2.9 2.6 3.2 3.8 2.9 1.4 2.5 2.5 2.3 1.8 3.3 3.8 4.6 5.1 5.6 5.6 5.6 5.5 5.7 5.9 5.9 6.0
4.5 4.7 4.5 4.4 4.6 5.8 5.2 5.4 5.2 5.5 5.8 5.4 4.4 3.7 3.1 3.3 3.8 3.9 4.0 3.7 3.1 2.5 3.0 3.4 1.9 2.8 3.8 4.1 5.1 5.7 6.1 6.0 6.3 6.5 6.7 6.7 6.6 6.6
5.7 4.6 5.2 4.8 6.1 6.9 5.7 4.8 5.0 5.0 5.4 5.5 5.6 5.6 4.9 5.1 4.8 3.7 3.0 3.6 3.1 3.6 3.9 3.9 3.5 4.2 3.6 3.8 4.6 5.6 6.4 6.6 6.7 7.0 7.2 7.5 7.5 7.3
6.3 6.4 6.9 7.0 7.9 8.3 6.3 5.4 5.0 5.1 4.8 5.1 4.9 4.9 5.7 5.9 6.5 5.4 4.4 4.4 4.6 4.4 4.6 5.6 4.3 4.3 4.2 2.8 3.7 4.7 5.6 6.1 6.6 7.2 7.6 8.1 8.6 8.9
7.1 6.9 7.1 7.4 8.1 9.0 8.3 6.6 6.3 6.4 6.4 5.9 4.9 5.1 5.2 4.8 4.5 5.5 5.4 6.3 5.8 5.5 5.1 5.4 5.0 4.7 5.3 4.9 4.7 5.0 4.9 5.1 5.4 5.6 6.6 7.4 7.9 9.1
7.3 7.0 6.8 7.9 9.0 9.4 9.1 8.7 8.7 7.9 7.0 5.6 5.9 5.6 5.4 5.4 5.3 4.9 4.8 5.0 5.1 5.4 5.7 5.5 4.7 5.6 5.5 5.7 6.2 5.7 5.6 5.7 6.0 5.9 6.0 6.6 7.4 8.2
7.0 7.7 9.5 9.6 8.6 7.4 7.9 8.0 7.7 6.8 6.0 6.5 5.9 6.6 6.5 6.4 6.4 5.3 4.9 4.7 5.0 5.4 6.2 5.9 5.7 6.0 6.3 6.3 6.5 6.3 6.7 6.0 6.2 6.2 6.3 6.4 6.5 6.9
7.3 5.0 6.3 8.0 8.9 8.8 7.1 6.1 6.6 6.6 7.1 7.0 6.3 6.7 6.0 6.3 6.6 6.5 6.3 6.1 5.7 5.4 5.8 6.1 6.2 6.4 6.8 6.8 6.8 7.1 6.9 7.3 6.4 6.2 6.3 6.7 6.7 6.8
7.2 3.1 3.9 4.9 5.4 5.4 6.0 6.4 6.4 6.3 6.9 7.0 7.2 7.4 7.0 6.7 6.9 6.6 6.6 6.5 6.4 6.4 6.2 6.5 6.8 6.9 7.1 7.2 6.7 6.9 7.0 6.8 6.5 6.8 6.8 6.6 7.0 6.8
3.2 4.8 5.7 5.8 5.7 5.6 5.6 5.6 6.1 6.7 6.5 6.8 7.3 7.4 7.4 7.5 7.5 7.0 6.9 6.4 6.3 6.4 6.4 6.2 6.0 6.0 6.0 6.5 7.2 7.2 7.1 7.1 7.0 6.7 7.0 6.7 6.6 6.9
-2.0 -1.4 0.7 2.5 3.4 5.1 5.9 6.1 5.7 6.0 6.3 6.3 6.7 6.6 8.0 8.3 8.5 7.7 7.5 7.4 7.0 7.2 7.2 6.9 6.8 6.8 6.7 7.0 6.9 8.8 8.1 7.5 7.2 6.9 6.9 6.9 6.8 7.3
-2.7 -2.3 -1.5 -2.2 -0.4 1.4 3.0 4.0 4.5 4.8 5.0 5.5 5.3 5.6 5.7 6.5 4.9 5.5 7.3 6.9 7.5 7.1 6.3 6.3 6.8 7.4 7.3 7.4 5.2 6.2 8.6 7.8 7.4 7.1 6.7 6.5 7.2 7.8
-3.0 -2.8 -3.4 -2.4 -1.7 -0.8 1.9 3.6 5.4 3.4 3.3 2.6 3.2 3.9 4.4 4.2 4.1 5.3 5.5 8.3 7.0 2.4 1.9 4.1 6.1 8.4 6.3 5.4 3.9 2.9 4.6 7.7 8.5 7.3 5.3 5.5 4.4 3.4
-3.5 -3.6 -2.5 -2.2 -1.4 -1.3 0.0 0.5 3.6 2.9 1.9 1.9 2.2 2.5 4.7 4.3 3.6 4.6 4.5 2.9 2.9 4.2 4.4 1.3 1.1 2.1 1.5 4.4 5.0 3.3 2.8 4.2 6.4 7.7 8.8 8.4 5.8 3.9
-1.8 -2.8 -2.6 -2.3 -1.5 -1.0 -1.9 -2.5 -2.1 0.9 0.7 1.5 0.9 1.4 2.9 3.7 5.9 5.5 3.7 1.8 0.6 -0.5 -1.1 -1.2 -1.4 -0.2 0.0 1.4 5.4 2.4 0.6 1.0 3.8 4.9 5.4 7.1 8.1 8.7
Wind_Speed
5 6 4 4 4 2 2 2 2 5 8 6 3 9 9 10 12 19 17 15 16 16 15 15 15 15 15 14 13 13 11 10 10 8 7 6 4 3
3 7 5 3 2 3 1 3 3 2 4 2 2 3 13 10 13 19 21 16 15 16 17 18 16 15 13 13 12 10 9 9 9 9 7 6 5 4
6 6 6 5 3 3 1 3 3 2 2 2 3 2 5 7 11 17 16 17 17 18 17 16 16 15 15 13 11 10 9 8 7 7 7 6 5 6
5 4 2 3 5 5 4 4 2 2 2 4 2 1 2 8 5 9 9 14 14 18 18 18 17 16 15 13 11 10 9 9 8 6 6 5 5 6
6 7 6 6 4 1 5 5 2 1 2 2 3 2 2 4 3 4 4 7 11 12 18 18 17 16 14 13 13 12 12 10 8 7 7 6 6 7
6 5 4 4 4 3 3 3 3 3 1 3 2 4 3 3 3 5 2 0 2 8 10 12 15 16 15 14 14 12 11 10 9 8 8 8 9 8
8 8 7 4 7 3 1 2 2 1 1 4 3 3 5 6 9 5 5 3 2 3 3 6 12 14 15 14 12 11 9 9 8 10 9 10 10 10
6 6 6 12 13 12 6 6 7 3 2 1 0 4 8 10 8 8 6 4 3 13 4 4 9 5 11 11 9 9 9 10 11 11 10 9 10 11
6 5 5 6 8 5 10 12 10 3 5 4 3 1 2 5 8 10 7 5 3 3 5 2 5 3 13 14 12 11 12 12 13 13 13 13 13 14
6 7 5 5 4 4 3 4 4 5 6 4 2 2 3 8 6 4 4 4 3 3 6 3 3 3 6 12 12 14 15 14 15 15 15 16 15 17
6 6 4 4 9 8 3 2 2 1 3 5 4 3 4 4 10 7 3 4 2 1 3 2 1 2 2 3 11 12 16 17 17 18 18 19 19 21
5 7 9 6 9 10 2 2 2 4 2 2 1 3 3 7 8 7 3 3 3 1 3 4 4 3 2 1 7 13 14 15 18 19 20 21 21 19
5 4 4 10 11 11 11 3 3 4 7 5 4 3 3 2 2 5 10 4 4 3 4 4 3 2 3 1 1 5 8 8 7 8 10 14 17 19
5 5 5 12 14 15 12 14 13 12 4 2 3 4 4 3 2 5 6 7 10 7 8 12 2 5 4 3 3 3 5 10 11 9 12 15 16 19
4 8 13 12 13 11 15 14 15 3 2 3 2 3 4 5 8 4 6 8 9 9 6 9 5 4 4 4 2 3 4 4 11 9 10 10 10 12
8 6 8 9 14 12 7 6 3 4 5 2 2 2 1 2 4 4 4 4 3 3 12 14 13 10 5 5 5 6 5 5 4 7 10 11 12 15
8 2 1 1 2 3 3 4 4 2 1 2 3 2 2 2 1 1 3 4 4 3 4 5 10 11 11 8 6 6 6 6 5 7 7 7 10 14
6 4 3 0 2 3 3 3 3 6 3 2 4 4 4 3 2 2 2 1 1 2 2 1 1 1 2 4 11 5 5 6 5 7 8 7 8 12
3 1 1 1 1 3 3 3 4 4 4 2 3 2 3 5 8 5 4 5 5 5 5 4 4 4 5 6 2 13 5 3 4 4 6 7 8 8
2 1 1 2 2 2 2 2 4 4 3 3 3 3 3 4 3 3 5 4 6 3 2 1 2 4 5 5 3 2 10 3 3 4 4 4 10 15
2 2 3 3 3 3 3 2 2 2 3 2 3 3 4 3 4 4 5 11 8 2 3 3 3 9 3 3 1 2 4 14 12 4 3 2 2 2
3 3 3 3 3 3 3 3 4 4 3 2 2 2 3 2 3 5 4 3 2 3 2 1 2 1 1 3 4 3 2 3 12 14 16 12 3 3
3 3 3 3 3 3 3 3 3 4 3 3 2 2 2 2 2 1 1 2 2 2 2 1 1 1 2 3 5 2 2 3 2 5 6 19 23 26
Wind_Direction
85 96 107 56 63 324 355 85 258 155 200 197 164 199 182 184 164 150 144 153 150 156 150 154 158 162 162 156 164 162 156 153 146 149 158 154 156 126
127 111 95 88 52 54 358 64 56 74 181 89 219 166 174 184 167 156 150 152 155 153 157 163 172 170 173 169 171 164 167 173 165 161 174 164 184 184
78 83 86 94 100 97 118 73 80 59 94 67 38 131 152 173 158 157 153 156 163 164 170 177 185 182 177 180 174 178 178 189 182 183 188 184 209 210
38 61 112 115 96 87 93 82 141 97 133 138 96 126 171 182 143 127 135 156 164 176 184 188 190 189 186 184 187 187 188 207 203 199 214 204 203 234
46 58 31 36 30 112 132 127 119 61 148 131 143 212 136 128 135 91 129 141 179 186 195 197 195 195 192 192 198 200 194 212 210 217 229 235 229 229
43 53 56 63 68 30 21 96 145 144 154 108 116 159 146 116 126 164 141 188 167 195 216 205 199 199 199 202 206 209 209 205 221 225 236 248 250 243
44 38 31 79 85 106 97 54 73 109 176 162 153 144 164 159 176 169 179 184 219 175 172 210 200 200 206 208 210 207 215 227 235 245 241 247 253 256
38 37 35 44 37 37 84 135 157 132 133 174 25 197 190 183 173 176 172 168 207 204 175 214 195 191 207 215 194 200 222 237 234 245 241 239 250 251
33 29 37 32 31 32 44 45 44 109 167 152 171 217 170 194 180 172 177 188 188 159 154 175 180 214 211 212 216 226 240 238 239 236 237 245 244 254
36 26 16 17 8 23 32 23 43 48 57 54 63 100 171 148 162 171 163 118 68 117 164 176 162 209 202 221 224 230 232 237 242 245 250 253 259 271
13 7 356 5 344 338 355 314 4 357 344 358 87 118 83 133 158 125 145 150 155 192 216 97 173 179 189 198 233 235 242 248 252 254 255 257 263 271
7 17 1 343 325 331 322 212 247 251 214 264 310 317 243 211 204 193 160 158 139 165 194 179 164 162 243 251 221 233 244 254 257 258 262 265 265 263
339 340 349 337 332 318 312 13 275 278 256 222 199 211 231 231 241 201 187 204 199 215 187 179 175 175 202 215 240 206 216 240 235 250 266 269 267 264
356 348 327 312 320 311 305 300 299 314 354 249 225 214 199 210 205 220 228 220 215 221 190 190 186 186 193 199 221 204 216 245 252 254 262 266 269 264
316 292 289 304 326 330 326 346 356 348 27 333 237 230 225 219 203 197 218 214 234 254 235 188 174 199 216 215 225 195 225 229 237 235 239 239 246 259
295 303 298 298 291 298 315 313 338 350 339 281 263 326 257 207 209 196 206 193 194 197 214 212 219 220 233 227 234 244 217 225 216 221 230 244 243 244
240 199 249 281 308 315 315 301 293 257 247 327 330 323 285 336 349 180 202 194 215 193 199 206 234 239 240 239 241 236 231 226 227 243 245 250 244 240
60 57 58 355 262 266 266 271 275 299 300 244 215 229 290 299 242 196 216 223 222 216 210 173 180 277 256 267 238 236 221 229 224 228 236 251 261 254
85 40 54 65 288 302 288 267 272 265 252 238 272 256 241 226 252 247 235 237 235 231 220 207 221 228 245 253 246 251 252 258 239 234 233 243 256 262
104 160 255 261 272 263 265 268 268 268 248 239 229 224 229 226 218 241 246 232 236 216 178 170 188 206 224 241 212 249 278 254 233 257 247 245 257 273
205 228 220 250 272 274 282 283 284 263 249 231 244 233 233 203 224 224 218 224 210 166 206 213 220 259 218 101 41 289 272 274 274 236 222 217 228 256
209 224 250 242 251 255 274 280 301 304 301 295 271 236 226 225 228 222 203 198 204 171 202 262 354 65 127 184 235 226 259 283 273 269 263 256 194 245
234 222 238 241 244 253 254 264 245 267 261 259 249 257 251 210 215 239 246 213 155 172 182 282 336 91 201 181 245 215 237 257 269 291 281 275 274 277